STARLINK-35419

Last updated on Wed Dec 31 2025 00:02:06 GMT+0000 (Coordinated Universal Time)

1 66559U 25268C 25364.58335648 .00079727 00000+0 28827-2 0 9996 2 66559 43.0003 17.4255 0001479 284.1886 300.2359 15.27498743 6025
UTC large
Height (km)
Speed (km/s)
/
Latitude / Longitude
Inclination (degrees)
Orbital Period (minutes)
Azimuth
Elevation
Range (km)
Doppler Factor

Next 0 passes for location: London (51.5072 / 0.1276)

Sorry there are no passes over London.